Weather History for St. Joseph, MO

Change the Weather History Date:

Monday, April 2, 2012

  Actual Average Record
Temperature  
Mean Temperature 74 °F 50 °F  
Max Temperature 89 °F 62 °F 89 °F (2012)
Min Temperature 58 °F 38 °F 18 °F (1936)
Degree Days  
Heating Degree Days 0 15  
Month to date heating degree days 0 31  
Since 1 July heating degree days 3986 5024  
Cooling Degree Days 9 0  
Month to date cooling degree days 19 0  
Year to date cooling degree days 64 2  
Growing Degree Days 26 (Base 50)    
Moisture  
Dew Point 60 °F    
Average Humidity 54    
Maximum Humidity 79    
Minimum Humidity 29    
Precipitation  
Precipitation 0.00 in 0.08 in 0.92 in (1925)
Month to date precipitation 0.00 0.16  
Year to date precipitation 6.79 3.90  
Sea Level Pressure  
Sea Level Pressure 29.58 in    
Wind  
Wind Speed 11 mph (South)    
Max Wind Speed 24 mph    
Max Gust Speed 30 mph    
Visibility 10 miles    
Events      
T = Trace of Precipitation, MM = Missing Value Source: NWS Daily Summary

Daily Weather History Graph

Daily Weather History Graph

Search for Another Location

Airport:

Trip Planner

Search our weather history database for the weather conditions in past years. The results will help you decide how hot, cold, wet, or windy it might be!

Date:

Astronomy

Apr. 02, 2012 Rise Set
Actual Time 7:01 AM CDT 7:45 PM CDT
Civil Twilight 6:34 AM CDT 8:12 PM CDT
Nautical Twilight 6:01 AM CDT 8:44 PM CDT
Astronomical Twilight 5:28 AM CDT 9:18 PM CDT
Moon 3:22 PM CDT (4/2) 4:14 AM CDT (4/2)
Length of Visible Light 13h 38m
Length of Day
12h 43m
Waxing Gibbous, 78% of the Moon is Illuminated
Apr 2
Waxing Gibbous
Apr 6
Full
Apr 13
Last Quarter
Apr 21
New
Apr 29
First Quarter

Hourly Weather History & Observations

Time (CDT) Temp. Heat Index Dew Point Humidity Pressure Visibility Wind Dir Wind Speed Gust Speed Precip Events Conditions
12:53 AM 73.9 °F - 64.0 °F 71% 29.47 in 10.0 mi South 12.7 mph - N/A   Clear
1:53 AM 73.0 °F - 64.0 °F 73% 29.49 in 10.0 mi South 10.4 mph - N/A   Clear
2:53 AM 72.0 °F - 63.0 °F 73% 29.49 in 10.0 mi South 12.7 mph - N/A   Clear
3:53 AM 71.1 °F - 63.0 °F 75% 29.49 in 10.0 mi South 11.5 mph - N/A   Clear
4:53 AM 71.1 °F - 63.0 °F 75% 29.49 in 9.0 mi South 12.7 mph - N/A   Clear
5:53 AM 70.0 °F - 63.0 °F 78% 29.51 in 9.0 mi South 10.4 mph - N/A   Clear
6:53 AM 69.1 °F - 62.1 °F 78% 29.52 in 8.0 mi South 12.7 mph - N/A   Clear
7:53 AM 69.1 °F - 63.0 °F 81% 29.55 in 7.0 mi South 11.5 mph - N/A   Clear
8:53 AM 72.0 °F - 64.0 °F 76% 29.57 in 8.0 mi South 15.0 mph - N/A   Clear
9:53 AM 75.9 °F - 64.9 °F 69% 29.57 in 9.0 mi South 16.1 mph - N/A   Clear
10:53 AM 79.0 °F - 64.9 °F 62% 29.59 in 10.0 mi SSW 17.3 mph - N/A   Clear
11:53 AM 82.0 °F 83.8 °F 64.9 °F 56% 29.60 in 10.0 mi South 18.4 mph 25.3 mph N/A   Clear
12:53 PM 84.0 °F 85.4 °F 64.0 °F 51% 29.60 in 10.0 mi South 17.3 mph 23.0 mph N/A   Clear
1:53 PM 86.0 °F 86.8 °F 63.0 °F 46% 29.59 in 10.0 mi South 16.1 mph 21.9 mph N/A   Clear
2:53 PM 88.0 °F 87.1 °F 59.0 °F 37% 29.59 in 10.0 mi SSW 11.5 mph 25.3 mph N/A   Clear
3:53 PM 88.0 °F 87.6 °F 60.1 °F 39% 29.59 in 10.0 mi South 12.7 mph 23.0 mph N/A   Clear
4:53 PM 88.0 °F 86.9 °F 57.9 °F 36% 29.60 in 10.0 mi South 15.0 mph - N/A   Clear
5:53 PM 87.1 °F 84.9 °F 53.1 °F 31% 29.60 in 10.0 mi South 16.1 mph - N/A   Clear
6:53 PM 84.0 °F - 48.9 °F 29% 29.62 in 10.0 mi South 16.1 mph - N/A   Clear
7:53 PM 78.1 °F - 53.1 °F 42% 29.65 in 10.0 mi SSW 4.6 mph - N/A   Clear
8:53 PM 73.0 °F - 54.0 °F 51% 29.68 in 10.0 mi SSE 5.8 mph - N/A   Clear
9:53 PM 68.0 °F - 57.0 °F 68% 29.70 in 10.0 mi South 4.6 mph - N/A   Clear
10:53 PM 64.9 °F - 55.0 °F 70% 29.72 in 10.0 mi Calm Calm - N/A   Clear
11:53 PM 64.0 °F - 55.0 °F 73% 29.72 in 10.0 mi Calm Calm - N/A   Clear